Regional Weather Roundup
Issued by NWS

Home | Current Version | Previous Version | Text Only | Print | Product List | Glossary Off
Versions: 1 2 3 4 5 6 7 8 9 10 11 12 13 14 15 16 17 18 19 20 21 22 23 24 25 26 27 28 29 30 31 32 33 34 35 36 37 38 39 40 41 42 43 44 45 46 47 48 49 50

000
ASUS43 KOAX 051610
RWRNE

WEATHER ROUNDUP FOR NEBRASKA
NATIONAL WEATHER SERVICE OMAHA NE
1100 AM CDT TUE MAY 05 2015

NOTES: SATELLITE DATA IS BEING USED TO AUGMENT CLOUD COVER ABOVE
       12000 FEET.
       "FAIR" INDICATES FEW OR NO CLOUDS BELOW 12,000 FEET WITH NO
       SIGNIFICANT WEATHER AND/OR OBSTRUCTIONS TO VISIBILITY.

  * THESE STATIONS DO NOT REPORT WEATHER SUCH AS RAIN...SNOW OR FOG.

NEZ001>004-019>022-054>056-051700-
NEBRASKA PANHANDLE

CITY           SKY/WX    TMP DP  RH WIND       PRES   REMARKS
SCOTTSBLUFF    CLOUDY    55  46  71 SE6       29.98F
ALLIANCE       CLOUDY    55  48  77 S9        29.99S
CHADRON        CLOUDY    55  47  74 SE9       29.98F
KIMBALL        CLOUDY    49  49  99 SE9       29.98F FOG
SIDNEY         CLOUDY    50  46  86 SE6       30.01S
$$

NEZ057>060-069>072-079>082-051700-
SOUTHWEST NEBRASKA

CITY           SKY/WX    TMP DP  RH WIND       PRES   REMARKS
NORTH PLATTE   CLOUDY    55  54  96 E10       30.02F
IMPERIAL       CLOUDY    53  51  93 E7        30.00F
LEXINGTON      CLOUDY    60  59  97 E7        30.02F FOG
MCCOOK         CLOUDY    58  56  93 E7        29.99F FOG
OGALLALA       FOG       52  52 100 E5        30.02S VSB 3/4
$$

NEZ005>010-023>029-035>040-094-051700-
NORTH CENTRAL NEBRASKA

CITY           SKY/WX    TMP DP  RH WIND       PRES   REMARKS
VALENTINE      CLOUDY    53  51  93 E8        30.03F FOG
AINSWORTH      DRIZZLE   55  54  98 SE9       30.04S
BROKEN BOW     CLOUDY    58  56  93 E8        30.03F FOG
O`NEILL        FOG       55  55  98 SE8       30.07S VSB 1
ORD            LGT RAIN  58  56  93 E8        30.04F FOG
THEDFORD       DRZL/FOG  55  54  98 SE7       30.04F VSB 1
$$

NEZ041-046>049-061>064-073>077-083>087-051700-
SOUTH CENTRAL NEBRASKA

CITY           SKY/WX    TMP DP  RH WIND       PRES   REMARKS
GRAND ISLAND   CLOUDY    61  59  93 E8        30.06S FOG
AURORA         CLOUDY    62  62 100 E9        30.06S
HASTINGS       CLOUDY    64  59  83 SE10      30.04S
HEBRON         PTSUNNY   71  59  66 S12G17    30.05S
HOLDREGE       CLOUDY    61  59  94 E12       30.02S
KEARNEY *      CLOUDY    63  57  82 E12       30.04S
YORK           CLOUDY    63  61  94 E10       30.07R
$$

NEZ011>018-030>034-042>045-051700-
NORTHEAST NEBRASKA

CITY           SKY/WX    TMP DP  RH WIND       PRES   REMARKS
NORFOLK        FOG       58  58 100 SE7       30.07S VSB 1/2
ALBION         CLOUDY    60  58  94 SE8       30.06F FOG
BLAIR          LGT RAIN  64  60  86 SE7       30.09S
COLUMBUS *     CLOUDY    63  55  77 E7        30.09S
FREMONT        CLOUDY    67  62  83 SE9       30.08F
TEKAMAH        PTSUNNY   67  63  87 S12       30.08F
WAYNE          CLOUDY    58  57  96 SE7       30.09S FOG
$$

NEZ050>053-065>068-078-088>093-051700-
SOUTHEAST NEBRASKA

CITY           SKY/WX    TMP DP  RH WIND       PRES   REMARKS
LINCOLN        CLOUDY    67  60  78 SE7       30.08S
OMAHA EPPLEY   CLOUDY    67  60  78 S7        30.09S
BEATRICE       CLOUDY    68  60  74 S10       30.07S
FALLS CITY     CLOUDY    67  62  84 SE9       30.09S
NEBRASKA CITY  CLOUDY    66  61  85 SE10      30.10S
PLATTSMOUTH    CLOUDY    65  58  79 SE9       30.10S
$$

NEZ044-045-051>053-067-051700-
OMAHA AREA

CITY           SKY/WX    TMP DP  RH WIND       PRES   REMARKS
OMAHA EPPLEY   CLOUDY    67  60  78 S7        30.09S
BLAIR          LGT RAIN  64  60  86 SE7       30.09S
FREMONT        CLOUDY    67  62  83 SE9       30.08F
MILLARD        CLOUDY    67  62  82 SE7       30.09S
OFFUTT AFB     MOSUNNY   68  61  77 SE10      30.08F
PLATTSMOUTH    CLOUDY    65  58  79 SE9       30.10S
$$



USA.gov is the U.S. government's official web portal to all federal, state and local government web resources and services.